Orbital Elements at Epoch 2459200.5 (2020-Dec-17.0) TDB
Reference: JPL 23 (heliocentric ecliptic J2000)
Element | Value | Uncertainty (1-sigma) | Units |
e | .06830373925728722 | 5.7906e-08 | |
a | 2.309249128106892 | 7.8171e-09 | au |
q | 2.151518777780561 | 1.3541e-07 | au |
i | 8.50717410143848 | 5.3901e-06 | deg |
node | 313.1964699458557 | 2.3239e-05 | deg |
peri | 170.5128755760607 | 3.684e-05 | deg |
M | 345.1473428203863 | 2.7487e-05 | deg |
tp | 2459253.381804419623 (2021-Feb-07.88180442) | 9.7913e-05 | TDB |
period | 1281.753787274799 3.51 | 6.5084e-06 1.782e-08 | d yr |
n | .2808651736191972 | 1.4262e-09 | deg/d |
Q | 2.466979478433223 | 8.3511e-09 | au |
|
| | Orbit Determination Parameters
Additional Information
|